Tracking 20942 objects as of 14-Jul-2020
HD Live streaming from Space Station
objects crossing your sky now

COSMOS 1477

Track COSMOS 1477 now!
10-day predictions
COSMOS 1477 is classified as:


NORAD ID: 14175
Int'l Code: 1983-069E
Perigee: 1,468.2 km
Apogee: 1,471.5 km
Inclination: 74.0 °
Period: 115.2 minutes
Semi major axis: 7840 km
RCS: 0.6791 m2 (medium)
Launch date: July 6, 1983
Source: Commonwealth of Independent States (former USSR) (CIS)
Launch site: PLESETSK MISSILE AND SPACE COMPLEX (PKMTR)
aabbcc
Your satellite tracking list
Your tracking list is empty




NASA's NSSDC Master Catalog

Two Line Element Set (TLE):
1 14175U 83069E   20195.80475750 -.00000017 +00000-0 -62241-5 0  9997
2 14175 074.0266 314.0490 0002107 194.4222 334.1063 12.50417234690037
Source of the keplerian elements: AFSPC